Ashtabula, OH

7:58 AM EDT on May 23, 2017 (GMT -0400)
Ashtabula County

Weather History for KHZY - March, 2013

Change the Weather History Date:

Sunday, March 17, 2013

  Actual Average (KGKJ) Record (KGKJ)
Temperature  
Mean Temperature 27 °F -  
Max Temperature 32 °F 44 °F 75 °F (2012)
Min Temperature 24 °F 23 °F 9 °F (1961)
Degree Days  
Heating Degree Days 38    
Moisture  
Dew Point 18 °F    
Average Humidity 69    
Maximum Humidity 81    
Minimum Humidity 49    
Precipitation  
Precipitation 0.00 in - - ()
Sea Level Pressure  
Sea Level Pressure 30.16 in    
Wind  
Wind Speed 3 mph (North)    
Max Wind Speed 10 mph    
Max Gust Speed -    
Visibility 8 miles    
Events Snow    
Averages and records for this station are not official NWS values.
T = Trace of Precipitation, MM = Missing Value Source: NWS Daily Summary

Daily Weather History Graph

Daily Weather History Graph

Search for Another Location

Airport or City:

Trip Planner

Search our weather history database for the weather conditions in past years. The results will help you decide how hot, cold, wet, or windy it might be!

Date:

Astronomy

Mar. 17, 2013 Rise Set
Actual Time 7:30 AM EDT 7:31 PM EDT
Civil Twilight 7:03 AM EDT 7:59 PM EDT
Nautical Twilight 6:30 AM EDT 8:32 PM EDT
Astronomical Twilight 5:57 AM EDT 9:05 PM EDT
Moon 10:37 AM EDT (3/17) 12:43 AM EDT (3/17)
Length of Visible Light 12h 56m
Length of Day
12h 01m
Waxing Crescent, 31% of the Moon is Illuminated
Mar 17
Waxing Crescent
Mar 19
First Quarter
Mar 27
Full
Apr 3
Last Quarter
Apr 10
New

Hourly Weather History & Observations

Time (EDT) Temp. Windchill Dew Point Humidity Pressure Visibility Wind Dir Wind Speed Gust Speed Precip Events Conditions
12:53 AM 26.1 °F - 21.0 °F 81% 30.05 in 10.0 mi Calm Calm - N/A   Overcast
1:53 AM 26.1 °F - 21.0 °F 81% 30.06 in 10.0 mi Calm Calm - N/A   Overcast
2:13 AM 26.6 °F 21.2 °F 21.2 °F 80% 30.03 in 10.0 mi SW 4.6 mph - N/A   Overcast
2:40 AM 26.6 °F 22.6 °F 21.2 °F 80% 30.04 in 10.0 mi SSW 3.5 mph - N/A   Overcast
2:53 AM 27.0 °F - 21.0 °F 78% 30.07 in 10.0 mi Calm Calm - N/A   Overcast
3:53 AM 27.0 °F - 21.9 °F 81% 30.08 in 10.0 mi Calm Calm - N/A   Overcast
4:32 AM 26.6 °F - 21.2 °F 80% 30.04 in 10.0 mi Calm Calm - N/A   Overcast
4:53 AM 27.0 °F - 21.9 °F 81% 30.08 in 9.0 mi Calm Calm - N/A   Overcast
5:14 AM 26.6 °F - 21.2 °F 80% 30.05 in 9.0 mi Calm Calm - N/A   Overcast
5:27 AM 26.6 °F - 21.2 °F 80% 30.05 in 10.0 mi Calm Calm - N/A   Overcast
6:53 AM 27.0 °F 23.0 °F 21.9 °F 81% 30.12 in 10.0 mi SW 3.5 mph - N/A   Overcast
7:53 AM 27.0 °F - 21.9 °F 81% 30.15 in 10.0 mi Calm Calm - N/A   Overcast
8:16 AM 26.6 °F 21.2 °F 21.2 °F 80% 30.12 in 2.5 mi NW 4.6 mph - 0.00 in Snow Light Snow
8:27 AM 26.6 °F 16.8 °F 21.2 °F 80% 30.13 in 3.0 mi North 10.4 mph - 0.00 in Snow Light Snow
8:38 AM 26.6 °F 21.2 °F 21.2 °F 80% 30.13 in 2.5 mi Variable 4.6 mph - 0.00 in Snow Light Snow
8:48 AM 26.6 °F 19.1 °F 21.2 °F 80% 30.14 in 1.5 mi North 6.9 mph - 0.00 in Snow Light Snow
8:53 AM 27.0 °F 20.5 °F 21.9 °F 81% 30.18 in 1.2 mi North 5.8 mph - 0.00 in Snow Light Snow
9:15 AM 28.4 °F 22.2 °F 21.2 °F 74% 30.15 in 3.0 mi Variable 5.8 mph - 0.00 in Snow Light Snow
9:24 AM 28.4 °F 23.3 °F 21.2 °F 74% 30.16 in 8.0 mi North 4.6 mph - 0.00 in Snow Light Snow
9:53 AM 28.9 °F 21.1 °F 16.0 °F 58% 30.20 in 10.0 mi North 8.1 mph - 0.00 in   Overcast
10:53 AM 28.9 °F 21.1 °F 14.0 °F 54% 30.24 in 10.0 mi North 8.1 mph - N/A   Scattered Clouds
11:53 AM 30.0 °F 25.2 °F 12.9 °F 49% 30.25 in 10.0 mi Variable 4.6 mph - N/A   Mostly Cloudy
12:53 PM 30.0 °F 24.1 °F 12.9 °F 49% 30.25 in 10.0 mi North 5.8 mph - N/A   Mostly Cloudy
1:53 PM 28.9 °F 21.9 °F 16.0 °F 58% 30.25 in 10.0 mi North 6.9 mph - N/A   Overcast
2:53 PM 30.9 °F 24.3 °F 15.1 °F 52% 30.24 in 10.0 mi Variable 6.9 mph - N/A   Mostly Cloudy
3:53 PM 30.0 °F 26.5 °F 15.1 °F 54% 30.24 in 10.0 mi Variable 3.5 mph - N/A   Mostly Cloudy
4:53 PM 30.9 °F 26.2 °F 16.0 °F 54% 30.24 in 10.0 mi North 4.6 mph - N/A   Partly Cloudy
5:53 PM 30.0 °F 25.2 °F 16.0 °F 56% 30.25 in 10.0 mi NNE 4.6 mph - N/A   Clear
6:53 PM 28.0 °F 22.8 °F 14.0 °F 56% 30.26 in 10.0 mi NNE 4.6 mph - N/A   Clear
7:53 PM 26.1 °F 21.9 °F 14.0 °F 60% 30.26 in 10.0 mi NE 3.5 mph - N/A   Clear
8:53 PM 25.0 °F 20.7 °F 14.0 °F 63% 30.27 in 10.0 mi NE 3.5 mph - N/A   Clear
9:53 PM 24.1 °F 18.2 °F 12.9 °F 62% 30.28 in 10.0 mi NE 4.6 mph - N/A   Clear
10:53 PM 24.1 °F 18.2 °F 12.9 °F 62% 30.27 in 10.0 mi ENE 4.6 mph - N/A   Clear
11:53 PM 24.1 °F 17.0 °F 12.9 °F 62% 30.25 in 10.0 mi East 5.8 mph - N/A   Clear